Vertical_Velocity
3 -2 -9 4 -2 0 -3 1 6 -13 11 19 15 8 3 -2 21 18 28 13 -3 -0 4 -3 -5 1 -8 -7 -2 -1 3 -1 -1 1 -4 -2 -6 3 -1 5 1 -1 5 -3
-0 -12 -3 2 -0 14 18 1 -8 -6 -10 18 5 7 4 9 6 -4 9 5 1 1 1 -0 -5 -1 -1 -5 -3 -4 -4 1 0 -0 3 -0 -2 0 -1 4 -4 0 -1 -4
-3 -9 -2 3 -2 -4 5 1 -7 -5 -13 -1 5 -20 -10 -4 -11 9 -2 1 -3 2 4 -5 3 -2 -3 -4 -1 -0 -4 -5 -2 -2 -4 -4 -5 -2 -2 -3 2 -6 -2 0
3 -3 1 4 7 1 -1 1 4 11 4 0 3 -26 -4 -15 6 -6 8 2 7 -2 -3 2 -2 5 -2 -2 2 -1 -2 -2 -2 -1 -0 -1 -1 1 -1 -3 -1 -1 -4 -5
-9 4 -6 3 -0 15 -6 -11 7 1 -1 -5 -1 0 -28 -5 -13 9 21 6 2 -7 -0 1 -6 -0 -0 -2 1 2 -2 -1 -3 -4 -1 -1 -3 -1 -1 -2 -2 -3 -3 -5
-3 -2 10 -5 -2 -6 9 6 6 3 -2 3 1 3 -39 -3 8 4 8 2 -0 -5 -3 -5 -8 -2 -6 1 -4 -1 -3 -4 -2 -4 -4 -4 -3 -2 -4 -2 -2 -1 -1 -2
10 -6 -5 11 0 4 2 4 -3 -1 5 -10 -5 23 -39 29 12 -7 -14 4 11 -0 -6 -8 -1 -4 3 5 -1 7 6 1 -3 -4 -5 -5 -3 -4 -5 -5 -4 -3 -6 -3
1 -0 -1 -2 -8 -9 -3 -17 -9 -4 -1 -4 10 -2 -7 -13 -0 7 4 10 9 2 4 3 -5 0 5 4 -1 1 1 3 -0 -3 -3 -5 -6 -5 -6 -4 -7 -7 -6 -5
8 -4 16 5 -8 1 -2 10 -13 15 10 0 -3 -17 -11 1 -1 14 13 8 11 3 0 -5 -2 4 -1 1 0 3 -2 1 1 4 -1 0 -2 -7 -6 -4 -4 -6 -4 -4
7 -17 4 23 27 10 2 8 3 8 -3 -0 -2 1 3 2 -6 5 8 -9 -9 12 31 -0 -7 4 3 5 2 -4 -1 2 -2 -1 2 -1 -0 -3 -6 -6 -3 -4 -3 -4
3 6 -18 26 -6 -2 14 -10 9 11 7 -3 -1 -7 -0 1 -2 4 -2 14 -4 -3 14 6 18 -1 1 4 5 1 -3 3 -0 -2 0 -0 0 -1 -5 -6 -4 -5 -2 -3
-7 2 -3 -0 12 6 13 2 11 3 -11 -0 1 -36 -21 5 -30 -11 -3 -5 5 -7 2 -6 -7 -5 -18 -14 13 -2 6 1 -3 -1 1 1 -4 -1 -5 -6 -6 -3 -3 -0
3 12 -3 -16 -4 7 14 21 -3 -2 12 -7 9 -26 12 4 6 9 -12 2 1 -6 0 -8 1 -2 5 -4 -21 5 4 13 -6 -4 5 0 -0 -1 -4 -6 -5 -1 -3 0
-1 -3 11 -1 -6 6 -1 3 -6 12 6 -7 -2 -12 -24 10 -6 12 -11 -15 -4 7 -3 -3 1 1 1 -8 -9 13 -2 5 -7 2 4 -2 -1 -1 -2 -4 -5 -1 -1 0
3 -10 7 -8 -6 11 -6 -10 -19 13 -0 24 -10 0 -12 -0 19 0 10 -1 -2 4 4 -7 -4 1 7 -8 9 4 -6 0 1 0 -0 -1 3 1 -3 -3 -3 -1 -0 2
7 -16 10 -16 6 5 1 -23 8 -11 2 -8 2 -22 27 10 16 -2 1 -3 3 4 -2 3 -6 -4 -7 4 1 3 -6 6 0 -6 -1 5 4 -1 -3 -2 -3 -1 1 1
4 -1 0 -29 3 2 -13 -10 -6 7 -8 7 0 4 1 12 -3 -6 -3 1 -6 4 12 4 -4 -4 5 1 4 -3 5 -2 -1 -2 3 5 0 0 -2 -2 -2 -1 -0 1
3 -1 10 -9 4 2 -54 20 6 -4 -2 -5 -5 5 3 8 -5 3 -0 0 1 1 -4 2 -3 0 1 2 -0 -1 -3 -1 3 0 5 2 0 -1 -1 -2 -1 1 -0 0
-2 7 2 2 4 -16 -54 24 -4 3 -37 10 -2 -4 -4 -3 -6 -3 -1 1 5 3 0 -1 -3 3 4 1 -2 -1 0 4 2 2 2 1 0 -1 -1 -1 -0 1 2 -1
14 14 21 11 5 -3 -40 1 7 26 -38 -9 1 -2 -3 11 0 5 -2 -8 -5 -2 -3 -1 1 2 0 -1 0 2 4 3 1 1 0 1 0 -1 -0 1 0 -0 -1 1
1 -4 2 -5 0 -33 28 -6 -11 15 -47 -2 -0 1 -4 -4 1 2 -2 -1 -2 2 -2 4 3 1 2 3 2 3 2 1 1 1 2 1 -0 -1 -0 0 2 1 -2 0
5 9 -0 9 6 -13 3 -3 13 9 7 2 -1 -2 -10 -4 -2 2 1 1 -2 0 4 2 2 0 2 2 2 1 2 1 1 1 1 -0 -1 -0 1 1 0 -0 -2 -1
-11 6 9 19 -9 11 18 14 6 -1 0 -13 -7 -1 1 -2 -3 1 1 3 3 4 2 2 1 0 2 1 2 2 2 1 1 -0 -1 -1 1 2 -1 -1 0 -0 -0 0
-3 2 1 -0 1 3 -1 7 1 -6 2 -4 6 1 1 2 -3 -1 3 1 3 3 2 4 1 1 1 1 1 1 0 0 -0 -1 -1 -0 2 -2 -2 -0 0 -1 -0 1
3 0 -2 -16 -2 -2 4 -0 -10 2 -8 -11 3 -2 -3 -1 -2 0 2 0 0 -1 3 1 -0 0 0 1 -1 -0 -1 -0 -0 0 0 1 1 3 0 1 -0 -1 -0 -0
10 3 -2 -18 -12 27 14 3 -3 -3 -9 -3 -2 -0 -0 -3 0 0 0 0 -1 -1 3 -1 -0 -1 -0 -0 -0 -1 -0 0 0 1 2 -1 -1 2 1 1 1 2 1 0
Height
3113 3114 3112 3116 3117 3116 3120 3120 3119 3119 3121 3122 3122 3121 3123 3123 3122 3122 3124 3118 3108 3102 3103 3107 3111 3111 3109 3107 3106 3106 3105 3102 3102 3101 3098 3098 3096 3094 3092 3090 3091 3088 3088 3086
3109 3104 3111 3112 3113 3115 3115 3113 3115 3114 3115 3115 3114 3111 3114 3116 3115 3116 3117 3112 3105 3102 3100 3100 3106 3105 3105 3102 3101 3100 3101 3099 3097 3096 3094 3093 3092 3090 3088 3086 3083 3081 3080 3077
3101 3101 3106 3108 3109 3110 3110 3109 3111 3112 3114 3112 3108 3099 3103 3107 3108 3109 3107 3105 3102 3099 3095 3097 3101 3101 3102 3099 3097 3095 3095 3095 3094 3092 3091 3089 3087 3085 3084 3081 3079 3075 3073 3072
3096 3098 3098 3102 3102 3106 3104 3108 3109 3109 3108 3106 3109 3097 3097 3101 3101 3100 3100 3096 3093 3093 3093 3093 3099 3098 3097 3095 3093 3092 3091 3090 3089 3088 3086 3085 3084 3082 3080 3078 3075 3071 3068 3065
3088 3093 3095 3095 3097 3099 3097 3103 3103 3103 3104 3102 3102 3106 3081 3091 3091 3094 3091 3090 3085 3085 3088 3090 3092 3094 3093 3091 3089 3088 3087 3086 3085 3084 3082 3081 3079 3077 3074 3073 3070 3066 3063 3058
3083 3088 3088 3089 3091 3093 3096 3097 3097 3099 3102 3098 3095 3099 3080 3086 3085 3085 3085 3082 3081 3084 3084 3085 3086 3087 3088 3087 3085 3084 3083 3082 3081 3080 3078 3077 3075 3073 3070 3068 3064 3061 3056 3053
3079 3078 3081 3084 3086 3088 3090 3092 3096 3097 3097 3091 3089 3089 3083 3085 3080 3080 3081 3081 3079 3078 3079 3079 3081 3081 3082 3081 3080 3080 3078 3077 3076 3075 3073 3071 3070 3067 3065 3062 3058 3054 3050 3045
3073 3071 3073 3074 3074 3081 3082 3087 3088 3089 3088 3085 3083 3080 3080 3078 3074 3072 3073 3074 3075 3073 3072 3076 3076 3076 3077 3077 3076 3076 3074 3073 3071 3069 3068 3066 3063 3061 3059 3056 3053 3048 3043 3038
3070 3067 3068 3066 3070 3076 3079 3080 3083 3081 3081 3080 3080 3077 3081 3077 3073 3073 3072 3075 3073 3072 3070 3071 3072 3072 3072 3073 3071 3070 3069 3067 3066 3064 3062 3060 3057 3055 3054 3050 3046 3041 3036 3032
3066 3066 3064 3064 3066 3070 3073 3078 3079 3077 3079 3080 3072 3074 3073 3074 3075 3076 3074 3072 3071 3071 3067 3066 3067 3068 3069 3070 3067 3066 3065 3062 3061 3059 3057 3055 3052 3049 3047 3045 3040 3036 3032 3028
3061 3064 3062 3062 3064 3066 3069 3070 3074 3074 3075 3073 3073 3068 3068 3069 3072 3072 3073 3072 3069 3068 3067 3063 3059 3064 3066 3065 3065 3061 3059 3057 3055 3055 3052 3049 3046 3043 3041 3039 3035 3031 3028 3025
3059 3059 3060 3061 3064 3065 3066 3067 3069 3070 3071 3070 3067 3063 3069 3068 3067 3068 3066 3066 3065 3063 3061 3061 3059 3057 3058 3060 3059 3057 3053 3051 3049 3049 3048 3044 3042 3039 3035 3033 3030 3027 3024 3022
3058 3057 3059 3057 3061 3061 3060 3059 3063 3065 3065 3064 3065 3059 3062 3063 3065 3062 3060 3058 3055 3054 3053 3051 3049 3049 3048 3049 3051 3052 3047 3046 3044 3044 3042 3040 3036 3033 3029 3027 3025 3022 3020 3018
3056 3055 3056 3057 3058 3057 3055 3055 3060 3061 3060 3059 3058 3058 3054 3055 3056 3055 3053 3051 3049 3048 3044 3045 3045 3043 3041 3043 3043 3043 3041 3042 3040 3038 3037 3034 3031 3027 3024 3022 3021 3019 3017 3015
3051 3050 3051 3050 3049 3052 3053 3054 3052 3052 3055 3055 3051 3053 3053 3050 3048 3046 3044 3043 3042 3041 3040 3038 3036 3036 3037 3036 3038 3038 3035 3034 3033 3032 3031 3029 3024 3022 3020 3018 3017 3016 3015 3013
3046 3045 3046 3043 3044 3047 3049 3046 3045 3044 3046 3048 3046 3044 3048 3046 3041 3038 3037 3037 3037 3035 3032 3032 3033 3032 3032 3033 3032 3031 3028 3029 3028 3027 3025 3023 3019 3017 3016 3015 3014 3013 3012 3010
3041 3041 3042 3038 3041 3046 3044 3031 3039 3038 3039 3041 3041 3039 3040 3037 3034 3032 3031 3031 3032 3029 3027 3026 3027 3026 3028 3029 3027 3025 3024 3023 3023 3020 3019 3017 3015 3014 3012 3012 3011 3010 3009 3007
3036 3039 3040 3036 3040 3041 3029 3031 3032 3035 3032 3033 3033 3032 3033 3031 3027 3025 3024 3024 3023 3022 3022 3021 3021 3021 3022 3021 3019 3018 3018 3017 3016 3015 3014 3012 3011 3010 3009 3009 3008 3008 3006 3005
3033 3035 3035 3036 3035 3031 3022 3023 3028 3028 3026 3028 3027 3025 3024 3023 3022 3020 3018 3018 3018 3017 3015 3015 3015 3016 3016 3014 3013 3012 3012 3012 3010 3010 3009 3008 3007 3006 3006 3006 3006 3005 3003 3002
3028 3029 3030 3029 3028 3026 3006 3019 3022 3023 3016 3020 3020 3018 3018 3017 3016 3016 3014 3013 3011 3009 3008 3007 3010 3011 3010 3008 3006 3006 3006 3005 3005 3005 3004 3004 3003 3004 3004 3004 3003 3002 3001 3000
3020 3020 3020 3020 3020 3015 3006 3013 3018 3019 3015 3012 3013 3012 3011 3012 3012 3010 3008 3007 3005 3005 3005 3005 3005 3004 3003 3001 3001 3001 3000 3000 3000 3000 3000 3000 3001 3002 3002 3002 3001 3000 2999 2998
3016 3017 3015 3013 3014 3009 3005 3009 3011 3010 3008 3007 3007 3006 3007 3006 3004 3002 3001 3000 2999 2998 2999 2999 2998 2997 2996 2995 2995 2995 2995 2995 2995 2995 2996 2997 2998 3000 3000 3000 2999 2998 2997 2995
3010 3010 3009 3011 3005 3005 3004 3003 3003 3002 3001 3001 3000 2998 2998 2998 2996 2994 2994 2994 2993 2994 2993 2993 2992 2990 2989 2989 2989 2989 2990 2990 2990 2991 2993 2995 2997 2997 2998 2998 2997 2996 2995 2993
3001 3001 3001 3000 2996 2997 2996 2996 2994 2994 2994 2994 2993 2991 2990 2988 2986 2986 2987 2988 2987 2987 2986 2986 2984 2983 2982 2983 2984 2985 2985 2986 2987 2989 2991 2993 2995 2995 2996 2996 2995 2994 2993 2991
2995 2994 2993 2991 2990 2988 2988 2988 2988 2988 2985 2986 2986 2984 2982 2980 2980 2981 2981 2981 2981 2980 2979 2978 2977 2976 2977 2978 2979 2980 2981 2983 2985 2987 2989 2991 2992 2993 2993 2993 2993 2992 2990 2988
2985 2985 2985 2982 2983 2983 2983 2982 2981 2980 2979 2979 2979 2978 2976 2975 2975 2975 2975 2974 2974 2973 2972 2971 2971 2971 2973 2974 2975 2976 2978 2980 2983 2986 2988 2989 2990 2990 2990 2991 2991 2989 2987 2984